Tyler, TX

7:48 AM CDT on July 25, 2017 (GMT -0500)
Tyler Pounds

Weather History for KTYR - September, 2013

Change the Weather History Date:

Monday, September 16, 2013

  Actual Average Record
Temperature  
Mean Temperature 77 °F 76 °F  
Max Temperature 97 °F 86 °F 99 °F (1911)
Min Temperature 57 °F 66 °F 46 °F (1979)
Degree Days  
Heating Degree Days 0 0  
Month to date heating degree days 0 0  
Since 1 July heating degree days 0 0  
Cooling Degree Days 12 11  
Month to date cooling degree days 322 215  
Year to date cooling degree days 2438 2137  
Growing Degree Days 34 (Base 50)    
Moisture  
Dew Point 63 °F    
Average Humidity 55    
Maximum Humidity 79    
Minimum Humidity 30    
Precipitation  
Precipitation 0.00 in 0.10 in 2.56 in (1987)
Month to date precipitation 0.17 1.88  
Year to date precipitation 19.78 31.14  
Snow  
Snow 0.00 in - - ()
Month to date snowfall 0.0  
Since 1 July snowfall 0.0  
Since 1 September snowfall 0.0  
Snow Depth 0.00 in    
Sea Level Pressure  
Sea Level Pressure 30.04 in    
Wind  
Wind Speed 5 mph (SE)    
Max Wind Speed 14 mph    
Max Gust Speed 24 mph    
Visibility 10 miles    
Events      
T = Trace of Precipitation, MM = Missing Value Source: NWS Daily Summary

Daily Weather History Graph

Daily Weather History Graph

Search for Another Location

Airport or City:

Trip Planner

Search our weather history database for the weather conditions in past years. The results will help you decide how hot, cold, wet, or windy it might be!

Date:

Astronomy

Sep. 16, 2013 Rise Set
Actual Time 7:06 AM CDT 7:25 PM CDT
Civil Twilight 6:41 AM CDT 7:50 PM CDT
Nautical Twilight 6:12 AM CDT 8:19 PM CDT
Astronomical Twilight 5:43 AM CDT 8:48 PM CDT
Moon 5:29 PM CDT (9/16) 4:01 AM CDT (9/16)
Length of Visible Light 13h 08m
Length of Day
12h 19m
Waxing Gibbous, 90% of the Moon is Illuminated
Sep 16
Waxing Gibbous
Sep 19
Full
Sep 26
Last Quarter
Oct 4
New
Oct 11
First Quarter

Hourly Weather History & Observations

Time (CDT) Temp. Heat Index Dew Point Humidity Pressure Visibility Wind Dir Wind Speed Gust Speed Precip Events Conditions
12:53 AM 82.9 °F 83.3 °F 61.0 °F 47% 30.03 in 10.0 mi SE 5.8 mph - N/A   Partly Cloudy
1:53 AM 79.0 °F - 62.1 °F 56% 30.03 in 10.0 mi SSE 5.8 mph - N/A   Clear
2:53 AM 77.0 °F - 62.1 °F 60% 30.02 in 10.0 mi Calm Calm - N/A   Clear
3:53 AM 75.9 °F - 63.0 °F 64% 30.03 in 10.0 mi SSE 4.6 mph - N/A   Clear
4:53 AM 75.0 °F - 64.0 °F 69% 30.04 in 10.0 mi SSE 4.6 mph - N/A   Clear
5:53 AM 73.9 °F - 64.9 °F 73% 30.04 in 10.0 mi SSE 3.5 mph - N/A   Clear
6:53 AM 73.0 °F - 66.0 °F 79% 30.06 in 10.0 mi South 4.6 mph - N/A   Clear
7:53 AM 75.9 °F - 66.9 °F 74% 30.07 in 10.0 mi Calm Calm - N/A   Clear
8:53 AM 81.0 °F 84.4 °F 70.0 °F 69% 30.09 in 10.0 mi Calm Calm - N/A   Unknown
9:53 AM 84.9 °F 86.1 °F 64.0 °F 49% 30.10 in 10.0 mi Calm Calm - N/A   Scattered Clouds
10:53 AM 87.1 °F 87.5 °F 62.1 °F 43% 30.10 in 10.0 mi Calm Calm - N/A   Scattered Clouds
11:53 AM 90.0 °F 91.3 °F 64.0 °F 42% 30.09 in 10.0 mi Variable 5.8 mph - N/A   Mostly Cloudy
12:53 PM 91.0 °F 92.6 °F 64.0 °F 41% 30.08 in 10.0 mi SE 8.1 mph - N/A   Scattered Clouds
1:53 PM 91.0 °F 91.9 °F 63.0 °F 39% 30.05 in 10.0 mi East 4.6 mph - N/A   Partly Cloudy
2:53 PM 93.9 °F 94.8 °F 62.1 °F 35% 30.02 in 10.0 mi East 11.5 mph 18.4 mph N/A   Partly Cloudy
3:53 PM 96.1 °F 96.4 °F 61.0 °F 31% 29.99 in 10.0 mi SSE 6.9 mph - N/A   Partly Cloudy
4:53 PM 95.0 °F 94.8 °F 60.1 °F 31% 29.97 in 10.0 mi SE 6.9 mph 17.3 mph N/A   Clear
5:53 PM 95.0 °F 94.4 °F 59.0 °F 30% 29.97 in 10.0 mi SE 10.4 mph - N/A   Scattered Clouds
6:53 PM 91.9 °F 91.8 °F 61.0 °F 35% 29.98 in 10.0 mi SSE 6.9 mph - N/A   Mostly Cloudy
7:53 PM 89.1 °F 89.3 °F 62.1 °F 40% 29.98 in 10.0 mi ESE 3.5 mph - N/A   Clear
8:53 PM 88.0 °F 88.7 °F 63.0 °F 43% 30.01 in 10.0 mi ENE 5.8 mph - N/A   Clear
9:53 PM 86.0 °F 87.3 °F 64.0 °F 48% 30.03 in 10.0 mi East 4.6 mph - N/A   Clear
10:53 PM 84.0 °F 85.4 °F 64.0 °F 51% 30.04 in 10.0 mi ENE 4.6 mph - N/A   Scattered Clouds
11:53 PM 84.0 °F 85.4 °F 64.0 °F 51% 30.04 in 10.0 mi East 4.6 mph - N/A   Clear